Total_Precipitation_Accumulation
0.96 1.03 1.13 1.20 1.21 1.17 1.16 1.17 1.24 1.30 1.23 1.05 0.98 0.93 0.85 0.83 0.95 0.75 0.74 0.90 0.81 0.75 0.71 0.67 0.62 0.56 0.50 0.46 0.44 0.43 0.43 0.45 0.47 0.50 0.53 0.60 0.68 0.76
0.76 0.83 0.93 1.03 1.15 1.22 1.28 1.26 1.23 1.22 1.22 1.07 1.01 0.99 0.89 0.82 0.97 0.81 0.80 0.83 0.70 0.60 0.53 0.49 0.47 0.43 0.40 0.38 0.37 0.36 0.35 0.33 0.32 0.33 0.37 0.42 0.48 0.57
0.58 0.63 0.71 0.78 0.88 0.97 1.03 1.06 1.08 1.08 1.11 1.07 1.00 0.97 0.92 0.87 0.86 0.75 0.70 0.67 0.62 0.54 0.43 0.39 0.38 0.35 0.33 0.33 0.33 0.32 0.32 0.31 0.30 0.29 0.30 0.32 0.35 0.39
0.43 0.48 0.54 0.56 0.64 0.68 0.73 0.79 0.84 0.88 0.92 1.02 1.04 0.95 0.90 0.84 0.77 0.68 0.53 0.48 0.50 0.48 0.40 0.36 0.35 0.35 0.34 0.33 0.32 0.29 0.25 0.21 0.19 0.20 0.23 0.25 0.27 0.29
0.32 0.35 0.40 0.42 0.46 0.47 0.51 0.54 0.60 0.69 0.83 0.93 0.97 0.91 0.84 0.74 0.67 0.56 0.48 0.50 0.39 0.36 0.32 0.31 0.31 0.30 0.27 0.24 0.21 0.19 0.15 0.12 0.10 0.11 0.13 0.17 0.19 0.21
0.27 0.28 0.31 0.33 0.34 0.37 0.39 0.42 0.49 0.61 0.73 0.81 0.79 0.73 0.69 0.61 0.61 0.57 0.49 0.45 0.39 0.29 0.27 0.23 0.22 0.18 0.16 0.14 0.13 0.13 0.11 0.11 0.11 0.11 0.10 0.09 0.09 0.10
0.23 0.22 0.24 0.28 0.31 0.32 0.32 0.38 0.46 0.57 0.63 0.65 0.63 0.56 0.52 0.55 0.57 0.51 0.47 0.42 0.35 0.28 0.28 0.23 0.21 0.23 0.22 0.17 0.12 0.09 0.07 0.06 0.06 0.06 0.06 0.06 0.05 0.04
0.25 0.22 0.21 0.21 0.23 0.26 0.28 0.35 0.43 0.47 0.49 0.51 0.51 0.50 0.46 0.48 0.52 0.50 0.49 0.50 0.47 0.35 0.35 0.28 0.21 0.29 0.30 0.27 0.17 0.10 0.07 0.06 0.05 0.04 0.04 0.05 0.04 0.03
0.30 0.27 0.22 0.18 0.24 0.27 0.27 0.29 0.33 0.34 0.39 0.47 0.50 0.49 0.48 0.51 0.59 0.58 0.57 0.57 0.53 0.41 0.44 0.41 0.31 0.34 0.25 0.17 0.16 0.13 0.10 0.09 0.07 0.04 0.02 0.03 0.04 0.04
0.29 0.29 0.29 0.28 0.26 0.25 0.21 0.23 0.29 0.34 0.36 0.40 0.49 0.48 0.42 0.46 0.55 0.59 0.57 0.55 0.53 0.49 0.51 0.53 0.38 0.33 0.22 0.30 0.26 0.18 0.13 0.14 0.12 0.06 0.03 0.02 0.03 0.04
0.21 0.24 0.24 0.25 0.25 0.26 0.23 0.27 0.31 0.37 0.34 0.38 0.42 0.43 0.46 0.50 0.52 0.54 0.61 0.67 0.65 0.58 0.57 0.59 0.50 0.40 0.32 0.38 0.34 0.23 0.21 0.27 0.25 0.13 0.06 0.05 0.04 0.05
0.19 0.21 0.23 0.19 0.18 0.17 0.18 0.27 0.37 0.36 0.34 0.38 0.52 0.68 0.74 0.71 0.61 0.60 0.69 0.74 0.75 0.79 0.68 0.65 0.62 0.51 0.47 0.39 0.39 0.40 0.44 0.50 0.45 0.29 0.15 0.10 0.10 0.15
0.18 0.21 0.23 0.16 0.13 0.13 0.16 0.25 0.32 0.31 0.37 0.52 0.71 0.82 0.80 0.71 0.62 0.59 0.63 0.70 0.76 0.85 0.71 0.67 0.69 0.64 0.69 0.58 0.39 0.43 0.56 0.69 0.72 0.57 0.35 0.22 0.18 0.19
0.19 0.19 0.20 0.17 0.14 0.15 0.18 0.23 0.25 0.33 0.48 0.65 0.76 0.74 0.61 0.50 0.47 0.46 0.48 0.53 0.64 0.66 0.59 0.61 0.69 0.68 0.69 0.64 0.49 0.46 0.60 0.77 0.83 0.75 0.58 0.44 0.33 0.28
0.16 0.17 0.18 0.20 0.22 0.30 0.31 0.28 0.32 0.46 0.57 0.64 0.68 0.62 0.51 0.43 0.38 0.38 0.38 0.45 0.49 0.46 0.39 0.42 0.55 0.58 0.65 0.65 0.63 0.67 0.76 0.93 0.96 0.87 0.75 0.62 0.49 0.38
0.14 0.21 0.30 0.35 0.37 0.41 0.44 0.48 0.50 0.51 0.49 0.56 0.56 0.49 0.40 0.36 0.34 0.32 0.35 0.41 0.46 0.46 0.40 0.36 0.43 0.54 0.66 0.66 0.73 0.81 0.84 1.04 1.07 0.96 0.89 0.81 0.66 0.51
0.13 0.27 0.45 0.49 0.50 0.48 0.46 0.46 0.49 0.46 0.47 0.46 0.45 0.43 0.40 0.35 0.33 0.29 0.31 0.34 0.42 0.45 0.43 0.37 0.39 0.44 0.45 0.50 0.62 0.69 0.74 0.91 1.03 0.97 0.90 0.97 0.95 0.73
0.18 0.38 0.48 0.49 0.49 0.45 0.41 0.38 0.37 0.37 0.36 0.37 0.38 0.38 0.37 0.35 0.33 0.30 0.28 0.31 0.36 0.36 0.35 0.33 0.33 0.34 0.32 0.36 0.56 0.66 0.68 0.86 0.95 0.86 0.76 0.89 1.03 0.87
0.24 0.35 0.40 0.44 0.45 0.40 0.37 0.35 0.34 0.31 0.29 0.30 0.32 0.32 0.31 0.30 0.29 0.29 0.27 0.28 0.32 0.32 0.29 0.25 0.24 0.27 0.28 0.41 0.60 0.77 0.75 0.78 0.80 0.74 0.67 0.68 0.89 0.90
0.25 0.29 0.31 0.35 0.38 0.36 0.33 0.29 0.27 0.25 0.24 0.23 0.25 0.27 0.27 0.28 0.25 0.25 0.25 0.25 0.28 0.29 0.26 0.23 0.22 0.25 0.28 0.37 0.61 0.79 0.80 0.64 0.56 0.61 0.63 0.65 0.76 0.76
0.23 0.25 0.25 0.24 0.26 0.27 0.28 0.28 0.25 0.23 0.21 0.21 0.21 0.22 0.23 0.25 0.25 0.21 0.19 0.15 0.20 0.23 0.23 0.24 0.24 0.20 0.19 0.20 0.40 0.61 0.69 0.75 0.63 0.53 0.52 0.54 0.52 0.43
0.18 0.20 0.21 0.21 0.21 0.20 0.19 0.19 0.19 0.17 0.16 0.17 0.19 0.20 0.20 0.20 0.19 0.17 0.16 0.17 0.17 0.18 0.19 0.21 0.19 0.17 0.17 0.22 0.38 0.53 0.56 0.51 0.50 0.52 0.50 0.35 0.24 0.25
0.18 0.18 0.17 0.18 0.17 0.15 0.12 0.12 0.12 0.12 0.13 0.14 0.16 0.18 0.17 0.15 0.13 0.11 0.09 0.08 0.08 0.09 0.12 0.14 0.15 0.13 0.14 0.17 0.24 0.31 0.31 0.26 0.19 0.20 0.34 0.40 0.31 0.31